Flag for Burundi Weather past 2 weeks in Muyinga, Burundi

Now
77 °F

Partly sunny.


Feels Like: 79 °F
Forecast: 60 / 72 °F
Wind: 7 mph from Northeast

Location: Kigali Airport

Current Time: Aug 30, 2014 at 2:33:26 PM

Latest Report: Aug 30, 2014 at 1:30 PM


Visibility: N/A

Pressure: 30.12 "Hg

Humidity: 57%

Dew point: 61 °F

Location of MuyingaLocation

Historic Weather in Muyinga — Graph

°F

Muyinga temperature yesterday

Maximum temperature yesterday: 82 °F (at 1:00 PM)
Minimum temperature yesterday: 61 °F (at 4:00 AM)
Average temperature yesterday: 72 °F

Past Weeks' High & Low Weather Summary

 TemperatureHumidityPressure
High88 °F (Aug 23, 3:00 PM)100% (Aug 15, 10:00 PM)30.24 "Hg (Aug 15, 10:00 PM)
Low61 °F (Aug 29, 4:00 AM)29% (Aug 23, 4:00 PM)29.95 "Hg (Aug 23, 4:00 PM)
Average72 °F72%30.13 "Hg
* Reported Aug 15 1:30 PM — Aug 30 1:30 PM, Muyinga, Weather by CustomWeather, © 2014

Note: Actual official high and low records may vary slightly from our data, if they occured in-between our weather recording intervals... More about our weather records

Advertising

Muyinga weather history for previous 24 hours

 ConditionsComfort  
Time TempWeatherWind HumidityBarometerVisibility
1:30 PM
Aug 30
77 °FPartly sunny.7 mph57%30.12 "HgN/A
1:00 PM77 °FPartly sunny.7 mph61%30.12 "HgN/A
12:00 PM77 °FPartly sunny.6 mph57%30.15 "HgN/A
11:00 AM75 °FPartly sunny.7 mph61%30.18 "HgN/A
10:30 AM75 °FPartly sunny.3 mph57%30.18 "HgN/A
9:00 AM68 °FBroken clouds.3 mph83%30.18 "HgN/A
8:30 AM66 °FBroken clouds.6 mph88%30.18 "HgN/A
6:00 PM
Aug 29
75 °FThunderstorms. Broken clouds.16 mph57%30.07 "Hg5 mi
5:30 PM82 °FThunderstorms. Scattered clouds.7 mph48%30.04 "HgN/A
5:00 PM82 °FThunderstorms. Scattered clouds.7 mph48%30.04 "HgN/A
4:30 PM82 °FScattered clouds.9 mph45%30.01 "HgN/A
4:00 PM82 °FScattered clouds.9 mph48%30.01 "HgN/A
3:30 PM82 °FScattered clouds.9 mph45%30.04 "HgN/A
3:00 PM82 °FScattered clouds.9 mph45%30.04 "HgN/A
2:30 PM81 °FPartly sunny.9 mph51%30.04 "HgN/A
2:00 PM81 °FPartly sunny.12 mph51%30.07 "HgN/A
Weather by CustomWeather, © 2014

See weather overviewHow to use our weather pages